This is the latest recevied weather packets stored in our database for station/object OH7GGX-14. If no packets are shown the sender has not sent any weather packets the latest 10 day(s).
| Time | Temp. | Humidity | Pressure | Rain* | Wind** | Luminosity | Snow |
|---|---|---|---|---|---|---|---|
| 1787456832 | 13.89° C | 99% | 999.7 hPa | 0.25 mm | - | - | - |
| 1787456232 | 13.89° C | 99% | 999.9 hPa | 0 mm | - | - | - |
| 1787455632 | 13.89° C | 99% | 1000.2 hPa | 0.25 mm | - | - | - |
| 1787455032 | 13.89° C | 99% | 1000.3 hPa | 0.51 mm | - | - | - |
| 1787454432 | 13.89° C | 99% | 1000.4 hPa | 1.02 mm | - | - | - |
| 1787453832 | 13.89° C | 99% | 1000.6 hPa | 1.52 mm | - | - | - |
| 1787453232 | 13.89° C | 99% | 1000.8 hPa | 1.78 mm | - | - | - |
| 1787452632 | 13.89° C | 99% | 1001 hPa | 2.03 mm | - | - | - |
| 1787452032 | 13.89° C | 99% | 1001.3 hPa | 2.54 mm | - | - | - |
| 1787451432 | 13.89° C | 99% | 1001.4 hPa | 2.54 mm | - | - | - |
| 1787450832 | 13.89° C | 99% | 1001.6 hPa | 2.03 mm | - | - | - |
| 1787450232 | 13.89° C | 99% | 1001.7 hPa | 1.52 mm | - | - | - |
| 1787449632 | 13.89° C | 99% | 1001.8 hPa | 1.27 mm | - | - | - |
| 1787449032 | 13.89° C | 99% | 1002 hPa | 1.02 mm | - | - | - |
| 1787448434 | 13.89° C | 99% | 1002.1 hPa | 0.25 mm | - | - | - |
| 1787447832 | 14.44° C | 99% | 1002.1 hPa | 0.25 mm | - | - | - |
| 1787447232 | 14.44° C | 99% | 1002.4 hPa | 0.25 mm | - | - | - |
| 1787446632 | 14.44° C | 99% | 1002.7 hPa | 0.25 mm | - | - | - |
| 1787446034 | 14.44° C | 99% | 1002.7 hPa | 0.51 mm | - | - | - |
| 1787445432 | 14.44° C | 99% | 1003 hPa | 0.76 mm | - | - | - |
| 1787444834 | 15° C | 99% | 1003 hPa | 0.76 mm | - | - | - |
| 1787444232 | 15° C | 99% | 1003.3 hPa | 0.51 mm | - | - | - |
| 1787443632 | 15° C | 99% | 1003.3 hPa | 0.51 mm | - | - | - |
| 1787443032 | 15.56° C | 99% | 1003.6 hPa | 0.51 mm | - | - | - |
| 1787442432 | 15.56° C | 99% | 1003.9 hPa | 0.25 mm | - | - | - |
* Rain latest hour (hover to see other rain measurements)
** Current wind speed in m/s (hover to see current wind gust speed)